Location: Newark
(42.5998°N, 13.2232°E)
Time: 06:35:26
(UTC+00:00)

Envisat - Visible Passes

Search period start: 20 January 2020 00:00
Search period end: 30 January 2020 00:00
Orbit: 764 x 766 km, 98.1° (Epoch: 19 January)

Date Brightness Start Highest point End Pass type
(mag) Time Alt. Az. Time Alt. Az. Time Alt. Az.
20 Jan 6.3 04:23:14 10° ENE 04:24:46 11° E 04:26:17 10° ESE visible
20 Jan 3.0 05:59:19 10° NNE 06:04:25 85° WNW 06:09:30 10° SSW visible
20 Jan 3.6 17:14:31 10° S 17:19:31 61° W 17:24:34 10° NNW visible
21 Jan 4.3 05:22:43 10° NNE 05:27:35 44° E 05:32:24 10° S visible
21 Jan 3.0 16:37:47 10° SSE 16:42:46 62° ENE 16:47:47 10° N visible
21 Jan 6.0 18:19:07 10° SW 18:22:12 16° W 18:25:18 10° NW visible
22 Jan 5.8 04:46:49 10° NE 04:50:33 20° E 04:54:16 10° SE visible
22 Jan 4.7 17:40:30 10° SSW 17:45:07 35° W 17:49:45 10° NNW visible
23 Jan 3.3 05:48:01 10° NNE 05:53:08 77° ESE 05:58:12 10° S visible
23 Jan 3.2 17:03:09 10° S 17:08:13 77° WSW 17:13:20 10° NNW visible
24 Jan 4.8 05:11:36 10° NNE 05:16:14 35° E 05:20:51 10° SSE visible
24 Jan 5.7 18:07:05 10° SW 18:10:48 20° W 18:14:32 10° NW visible
25 Jan 6.1 04:36:03 10° NE 04:39:08 16° E 04:42:14 10° SE visible
25 Jan 4.3 17:28:56 10° S 17:33:46 44° W 17:38:37 10° NNW visible
26 Jan 3.7 05:36:46 10° NNE 05:41:50 61° E 05:46:50 10° S visible
26 Jan 3.0 16:51:51 10° SSE 16:56:56 85° ENE 17:02:02 10° NNW visible
26 Jan 6.3 18:35:03 10° WSW 18:36:35 11° W 18:38:08 10° WNW visible
27 Jan 5.3 05:00:32 10° NE 05:04:53 28° E 05:09:11 10° SSE visible
27 Jan 5.3 17:55:14 10° SSW 17:59:24 25° W 18:03:36 10° NW visible
28 Jan 6.3 04:25:36 10° ENE 04:27:43 12° E 04:29:50 10° ESE visible
28 Jan 3.8 17:17:28 10° S 17:22:26 56° W 17:27:26 10° NNW visible
29 Jan 4.2 05:25:34 10° NNE 05:30:30 48° E 05:35:24 10° S visible
29 Jan 3.0 16:40:38 10° SSE 16:45:39 68° ENE 16:50:42 10° N visible
29 Jan 6.1 18:22:23 10° WSW 18:25:09 15° W 18:27:56 10° NW visible
